Temperature
3 3 2 2 1 1 0 -0 -1 -2 -3 -3 -4 -5 -5 -5 -6 -6 -6 -6 -7 -7 -7 -7 -6 -6 -5 -5 -5 -5 -4 -4 -3 -3 -2 -1 0 2 3 4 6 8 10
3 2 2 1 1 0 -0 -1 -2 -3 -4 -4 -5 -5 -5 -6 -6 -6 -7 -7 -7 -7 -7 -8 -7 -7 -6 -6 -5 -5 -5 -5 -4 -4 -3 -2 -1 1 2 3 5 6 8
3 2 1 1 0 -0 -1 -2 -3 -3 -4 -5 -5 -5 -6 -6 -6 -7 -7 -7 -7 -7 -8 -8 -8 -7 -7 -7 -6 -6 -6 -5 -5 -4 -4 -3 -2 -0 1 2 4 5 7
2 2 1 1 -0 -1 -2 -2 -3 -3 -4 -5 -5 -5 -5 -6 -6 -7 -7 -7 -8 -8 -8 -8 -9 -8 -8 -8 -7 -7 -6 -6 -5 -5 -4 -3 -2 -1 0 1 3 4 6
2 2 1 0 -0 -1 -2 -3 -3 -4 -4 -5 -6 -5 -5 -6 -6 -6 -7 -8 -8 -8 -8 -8 -9 -9 -9 -8 -8 -7 -7 -6 -6 -5 -5 -4 -3 -2 -1 1 2 3 5
2 1 1 0 -0 -1 -2 -3 -3 -4 -5 -6 -6 -6 -5 -5 -6 -6 -7 -8 -8 -8 -9 -9 -9 -9 -9 -9 -9 -8 -8 -7 -6 -6 -5 -4 -3 -2 -1 0 2 3 4
2 1 1 0 -1 -1 -2 -3 -3 -4 -4 -6 -6 -6 -5 -5 -6 -7 -7 -8 -8 -8 -9 -9 -9 -9 -9 -9 -9 -9 -8 -8 -7 -6 -5 -4 -3 -2 -1 0 1 3 4
2 1 1 0 -1 -1 -2 -3 -4 -4 -4 -6 -7 -9 -9 -8 -8 -8 -8 -8 -8 -9 -9 -9 -9 -10 -10 -10 -9 -9 -9 -8 -7 -6 -5 -5 -3 -2 -1 0 1 2 4
2 1 1 -0 -1 -1 -2 -3 -4 -5 -5 -6 -7 -9 -10 -10 -10 -9 -8 -9 -9 -9 -9 -9 -10 -10 -10 -10 -10 -9 -9 -9 -7 -6 -6 -5 -4 -2 -1 0 1 2 3
2 1 1 -0 -1 -1 -2 -3 -4 -5 -6 -6 -7 -8 -9 -10 -11 -11 -10 -9 -10 -10 -10 -10 -10 -10 -10 -10 -10 -10 -9 -9 -8 -7 -6 -5 -4 -3 -1 0 1 2 3
2 1 0 -0 -1 -1 -2 -3 -4 -5 -6 -7 -7 -8 -9 -10 -10 -12 -12 -10 -10 -10 -10 -10 -10 -10 -10 -10 -10 -10 -10 -9 -8 -7 -6 -5 -4 -3 -2 -0 1 2 3
2 1 0 -0 -1 -1 -2 -3 -4 -5 -6 -7 -7 -8 -9 -10 -10 -11 -12 -11 -11 -10 -10 -10 -10 -10 -10 -10 -10 -10 -10 -10 -9 -8 -7 -6 -5 -4 -3 -1 0 2 3
2 1 0 -0 -1 -2 -2 -3 -4 -5 -6 -6 -7 -8 -9 -9 -9 -10 -11 -12 -12 -11 -11 -11 -10 -10 -10 -11 -11 -11 -10 -10 -9 -8 -8 -7 -6 -5 -4 -2 -1 1 2
2 1 0 -0 -1 -2 -2 -3 -4 -4 -5 -6 -7 -8 -8 -9 -9 -10 -10 -11 -12 -11 -11 -11 -10 -10 -10 -11 -11 -11 -11 -10 -10 -9 -8 -7 -7 -6 -5 -4 -2 -1 1
2 1 0 -0 -1 -2 -2 -3 -4 -4 -5 -6 -7 -8 -8 -8 -9 -9 -10 -10 -11 -12 -11 -11 -11 -10 -10 -11 -11 -11 -11 -10 -10 -9 -9 -8 -7 -6 -5 -4 -3 -2 -0
2 1 0 -0 -1 -2 -2 -3 -3 -4 -5 -6 -7 -8 -8 -8 -9 -9 -9 -10 -11 -12 -12 -11 -11 -11 -11 -11 -11 -11 -11 -11 -10 -10 -9 -8 -7 -6 -5 -5 -4 -3 -1
2 1 0 -0 -1 -2 -2 -3 -3 -4 -5 -6 -7 -8 -8 -8 -9 -9 -9 -10 -10 -11 -12 -11 -11 -11 -11 -10 -10 -10 -11 -10 -10 -10 -9 -8 -7 -7 -6 -5 -4 -3 -2
2 1 0 -1 -1 -1 -2 -3 -3 -4 -5 -6 -7 -8 -8 -8 -9 -9 -9 -10 -10 -11 -11 -11 -11 -11 -11 -11 -11 -11 -11 -11 -11 -10 -9 -8 -8 -7 -6 -5 -4 -3 -3
1 0 -0 -1 -1 -1 -2 -3 -3 -4 -5 -6 -7 -8 -8 -9 -9 -9 -10 -10 -10 -10 -10 -11 -11 -11 -11 -11 -11 -11 -11 -11 -11 -10 -10 -9 -8 -7 -6 -5 -4 -3 -3
1 0 -0 -1 -1 -2 -2 -3 -3 -4 -5 -6 -7 -8 -8 -9 -9 -9 -10 -10 -10 -10 -10 -10 -11 -11 -11 -11 -11 -12 -12 -12 -11 -11 -10 -9 -8 -7 -6 -5 -4 -3 -2
1 0 -0 -1 -1 -2 -2 -3 -4 -4 -5 -6 -7 -8 -8 -9 -9 -9 -9 -9 -9 -10 -10 -10 -10 -11 -11 -11 -11 -12 -12 -12 -12 -11 -10 -9 -9 -7 -6 -5 -4 -3 -2
1 -0 -1 -1 -2 -2 -2 -3 -4 -5 -5 -6 -7 -8 -8 -9 -9 -9 -10 -10 -10 -9 -9 -10 -10 -11 -11 -11 -12 -12 -12 -12 -12 -11 -11 -10 -9 -8 -6 -5 -4 -3 -2
0 -0 -1 -1 -2 -2 -3 -3 -4 -5 -6 -7 -7 -8 -8 -9 -9 -9 -9 -9 -9 -10 -10 -10 -11 -11 -11 -11 -12 -12 -12 -12 -12 -12 -12 -10 -9 -8 -6 -5 -4 -3 -2
0 -0 -1 -1 -2 -2 -3 -3 -4 -5 -6 -6 -7 -8 -8 -9 -9 -9 -9 -9 -9 -10 -10 -11 -11 -11 -11 -11 -11 -11 -12 -12 -12 -12 -12 -11 -9 -8 -6 -5 -4 -3 -2
0 -0 -1 -1 -2 -2 -3 -4 -4 -5 -5 -6 -7 -8 -8 -9 -9 -9 -9 -9 -9 -10 -10 -11 -11 -11 -11 -11 -12 -12 -12 -13 -13 -12 -12 -12 -10 -8 -6 -5 -4 -3 -2
-0 -1 -1 -1 -2 -2 -3 -4 -4 -5 -5 -6 -6 -7 -8 -9 -9 -9 -9 -9 -10 -10 -10 -11 -11 -11 -11 -12 -12 -13 -13 -13 -13 -13 -12 -12 -11 -10 -7 -5 -4 -3 -2
Wind_Speed
7 4 2 1 2 4 5 6 7 9 10 12 13 13 15 17 18 17 17 20 22 23 25 27 29 30 32 33 34 35 35 36 36 37 37 38 38 38 38 37 37 35 34
9 7 4 3 3 3 4 6 7 8 10 11 12 14 16 18 17 18 18 19 20 22 24 26 28 30 32 33 34 35 36 37 37 38 38 38 39 39 39 38 38 37 35
12 9 7 6 6 6 6 7 9 9 8 9 10 13 15 16 16 18 19 18 18 20 23 26 28 30 32 33 35 36 37 37 38 38 38 39 39 40 40 40 39 38 37
14 12 9 9 9 8 7 7 7 4 5 5 5 9 12 14 16 18 17 17 17 17 20 25 27 29 32 34 35 37 37 38 38 39 39 39 39 40 40 40 40 39 38
17 14 12 11 10 8 8 7 5 4 5 6 7 7 9 11 14 16 15 16 17 17 19 21 26 29 31 33 35 36 37 38 39 39 39 40 39 40 40 40 40 39 38
18 16 13 13 11 8 6 6 5 5 5 6 8 9 8 10 13 12 13 14 15 17 19 20 22 24 29 32 34 36 37 38 39 40 39 39 39 40 40 40 40 39 39
19 17 12 12 11 7 6 6 4 5 4 4 4 6 8 9 9 7 10 11 13 17 18 19 20 21 23 29 32 35 36 38 39 39 39 39 39 39 39 39 40 39 39
19 16 15 11 11 7 6 6 5 3 4 3 2 4 5 4 4 7 7 7 9 14 15 19 20 22 23 23 27 34 35 37 39 38 38 38 38 38 38 38 38 38 38
20 18 16 14 12 9 7 7 7 6 5 4 4 3 3 5 8 5 7 8 8 7 10 16 20 21 23 24 25 28 33 36 39 38 37 37 36 36 36 36 36 37 37
19 19 17 16 13 11 7 8 7 6 6 5 4 6 6 6 5 7 6 5 7 9 9 14 17 21 23 23 25 30 33 35 37 38 37 35 34 34 33 33 32 33 34
17 18 17 16 13 11 10 9 7 7 6 6 5 5 6 7 8 8 14 13 9 7 8 9 13 18 22 22 23 27 32 35 37 38 35 34 33 32 31 29 27 28 30
10 15 16 15 14 12 11 10 9 8 8 8 7 6 6 6 7 8 11 16 17 12 9 8 10 14 19 21 23 30 33 34 35 36 35 33 32 31 30 28 25 24 25
9 12 14 13 12 14 14 13 8 9 9 9 9 8 8 10 9 10 13 16 19 17 10 8 9 13 18 19 21 30 31 33 34 35 35 34 32 30 29 28 26 22 19
12 11 14 14 14 14 13 12 8 9 8 10 11 10 9 10 10 11 12 14 18 19 14 10 7 9 14 18 22 29 25 31 33 35 35 34 32 30 29 28 26 23 19
10 12 13 12 12 13 12 10 8 9 8 9 10 11 10 10 10 11 12 12 13 19 21 13 6 7 12 16 23 22 21 29 33 34 34 33 31 30 28 27 25 23 20
11 12 12 11 11 11 11 9 9 9 10 10 9 10 12 11 10 11 12 13 13 16 20 14 11 10 11 16 24 22 22 31 32 32 33 32 30 29 27 26 25 23 21
14 13 12 12 11 11 10 10 10 9 10 11 11 11 14 13 12 12 12 13 14 14 19 18 14 12 12 14 15 17 20 19 21 29 31 31 30 28 27 26 25 23 22
14 14 13 12 12 11 10 11 11 11 11 12 12 12 14 12 13 12 12 14 14 14 17 21 17 13 14 13 13 14 14 16 15 26 30 30 29 27 26 25 24 23 22
14 14 13 13 12 11 11 11 11 11 11 12 12 13 14 13 15 13 14 15 14 15 15 17 18 14 13 11 12 13 14 12 15 21 25 25 26 25 25 24 23 22 21
15 15 14 13 12 11 11 11 10 11 12 12 13 14 14 14 15 15 15 15 14 15 14 15 15 14 12 10 9 11 12 11 13 14 18 19 22 23 23 23 23 22 21
15 14 13 12 11 10 10 11 11 12 12 13 13 13 14 16 20 18 15 13 12 12 13 12 13 13 12 10 10 10 13 13 12 11 11 11 11 11 12 17 19 21 22
14 13 13 13 12 11 16 19 15 12 12 12 12 11 11 14 18 23 26 25 22 16 13 12 13 14 13 12 11 12 13 13 12 5 8 12 10 12 11 9 17 21 21
15 14 14 13 13 14 19 20 20 13 10 10 9 9 10 11 16 10 19 24 21 23 21 15 14 14 15 13 14 15 14 14 14 10 11 14 10 12 11 12 20 21 22
15 14 14 14 12 14 19 20 20 13 8 8 9 9 10 10 12 15 14 13 11 11 15 12 11 14 14 14 13 14 14 13 12 10 9 11 9 10 11 10 18 21 22
14 14 12 13 13 13 18 19 18 7 7 9 9 9 10 10 18 23 16 11 9 10 16 20 21 20 23 23 19 11 10 11 12 9 6 7 7 9 9 9 12 18 20
14 13 12 13 13 12 16 18 17 7 8 8 7 8 14 14 19 21 12 8 10 12 10 10 13 16 14 15 19 10 8 9 9 6 4 4 5 5 5 4 5 6 9
Wind_Direction
171 169 161 53 9 1 352 341 333 327 320 315 310 304 301 300 299 298 299 310 316 317 317 317 316 316 315 313 311 309 307 304 301 297 292 289 285 283 281 279 277 276 275
184 184 195 224 265 285 293 295 295 294 292 292 289 289 290 290 290 293 295 301 309 315 316 315 314 313 312 311 310 308 305 302 299 296 291 286 283 280 278 276 274 272 271
195 194 201 223 244 257 268 275 280 278 276 276 276 282 282 280 283 288 292 293 296 307 313 315 313 311 310 309 308 306 303 301 297 294 290 285 280 276 274 273 271 269 267
203 200 205 224 239 245 252 258 261 259 261 266 269 274 275 275 279 284 286 288 292 297 303 312 312 312 310 308 307 305 302 299 297 293 289 285 279 275 271 269 267 265 263
207 205 211 226 235 235 241 250 250 233 257 269 272 267 262 265 273 280 280 284 289 293 295 305 310 312 310 306 305 304 302 299 296 292 287 284 279 273 269 266 264 262 260
208 208 213 225 229 227 234 237 249 249 246 262 281 282 269 265 266 265 269 280 287 292 296 297 300 304 307 306 304 303 302 299 296 292 286 282 279 272 267 263 262 260 257
207 205 209 217 219 217 224 226 236 260 261 252 274 285 274 257 249 251 257 268 279 285 289 292 296 298 299 302 303 302 301 299 296 292 286 282 279 273 266 262 260 257 254
205 206 208 211 215 216 224 227 217 239 259 258 265 307 313 295 247 252 250 262 271 278 286 293 295 295 295 295 295 299 300 299 298 293 288 284 280 275 266 262 258 255 251
203 204 206 209 213 211 220 224 216 221 245 251 207 225 283 294 308 260 240 258 261 267 277 287 290 293 297 296 294 295 297 299 299 295 290 286 282 277 269 263 258 254 248
202 205 208 210 212 213 216 225 222 215 224 249 236 221 223 238 284 302 282 257 257 272 273 287 291 291 292 293 293 295 298 298 299 298 294 289 287 283 275 268 260 255 248
203 205 208 209 211 214 218 222 223 221 220 233 235 231 239 245 236 263 293 299 287 262 264 270 280 284 288 289 290 292 297 300 302 303 303 300 294 290 285 280 271 261 251
203 207 208 209 212 215 219 223 224 226 228 233 239 236 236 242 249 252 276 292 297 292 271 266 273 278 283 286 289 296 300 302 303 305 306 304 300 298 295 293 285 275 258
205 208 206 207 211 217 222 224 223 229 229 233 238 242 243 246 252 259 271 284 290 293 281 266 260 269 280 284 287 295 299 302 303 304 305 304 302 300 298 298 294 290 279
205 197 201 206 211 216 223 223 226 231 231 235 244 243 249 253 252 254 262 277 289 294 289 274 255 255 271 278 284 294 297 299 301 302 302 302 301 299 297 295 295 292 291
196 195 198 203 211 216 220 221 231 234 234 239 246 248 251 257 255 255 258 259 271 289 294 292 279 254 271 278 284 289 289 294 297 299 300 299 298 296 295 294 294 290 289
193 189 196 202 209 214 218 220 231 235 238 244 246 249 253 258 259 259 260 260 258 266 281 287 284 276 277 284 288 291 291 294 297 298 298 297 295 293 291 290 290 288 286
194 196 198 202 210 216 217 222 232 233 240 250 252 252 257 259 263 265 265 265 264 264 274 283 282 279 274 276 282 283 285 285 288 293 295 294 292 290 287 285 283 282 283
195 197 197 203 211 216 216 222 234 239 240 249 255 256 261 264 264 267 269 269 270 266 269 279 284 281 276 275 276 278 286 287 286 291 293 292 290 287 284 280 278 276 276
194 195 196 204 211 215 218 224 231 239 243 248 253 256 261 264 268 269 269 272 272 271 266 272 280 282 280 277 278 281 281 282 287 290 293 293 291 288 284 280 275 272 271
194 195 199 204 209 213 220 226 230 239 246 250 253 254 256 259 265 269 272 270 271 272 270 271 277 282 282 277 275 286 292 288 289 292 290 290 290 291 287 280 273 270 270
196 194 196 202 208 213 220 224 231 240 245 251 254 252 254 263 271 279 283 281 279 278 279 278 281 284 286 289 289 291 291 293 288 282 286 288 291 288 287 285 279 271 264
193 190 196 201 207 217 232 239 239 236 241 247 254 255 258 271 280 288 292 295 292 290 291 288 290 289 291 290 290 288 288 290 291 272 280 288 286 283 279 270 269 267 263
192 193 197 201 211 222 233 244 251 251 242 242 246 254 268 272 289 287 288 290 290 290 293 294 291 288 289 287 284 282 277 276 277 278 286 286 281 278 277 272 270 262 258
195 196 198 202 211 224 233 243 251 255 245 241 242 247 258 267 276 284 278 278 269 271 280 282 271 274 276 277 271 273 275 277 275 271 266 276 280 278 279 269 267 259 253
198 198 197 199 208 223 231 240 249 243 246 247 247 250 257 262 282 293 295 289 282 280 293 296 298 299 301 304 304 299 292 288 288 285 263 265 280 286 277 265 258 253 247
200 195 199 200 205 215 227 236 244 238 246 253 253 252 269 280 291 298 299 293 294 294 291 295 299 300 297 296 300 295 287 282 283 284 256 258 279 300 298 276 258 254 245
Height
1563 1561 1560 1558 1556 1554 1552 1550 1547 1545 1542 1540 1537 1534 1531 1528 1525 1523 1520 1517 1514 1512 1510 1508 1506 1503 1500 1497 1494 1491 1488 1485 1483 1482 1480 1480 1480 1481 1481 1482 1484 1486 1489
1559 1558 1556 1554 1552 1550 1547 1545 1542 1540 1537 1534 1532 1529 1526 1523 1520 1517 1514 1511 1509 1506 1504 1502 1500 1497 1494 1491 1488 1484 1481 1478 1475 1473 1471 1470 1470 1471 1472 1473 1475 1477 1479
1555 1553 1551 1549 1547 1545 1542 1540 1537 1534 1532 1529 1526 1524 1521 1518 1515 1512 1509 1506 1503 1500 1498 1495 1493 1491 1488 1484 1481 1477 1473 1470 1467 1464 1462 1461 1460 1461 1461 1463 1465 1467 1469
1550 1548 1547 1545 1542 1540 1537 1535 1532 1530 1527 1524 1521 1518 1516 1512 1509 1506 1503 1500 1497 1494 1491 1488 1486 1484 1481 1477 1473 1470 1465 1462 1458 1455 1453 1451 1450 1450 1451 1452 1455 1457 1459
1545 1543 1542 1540 1537 1535 1533 1530 1527 1525 1521 1518 1515 1512 1509 1506 1504 1501 1498 1495 1492 1489 1486 1482 1479 1476 1472 1469 1466 1462 1457 1453 1449 1446 1443 1441 1440 1439 1440 1442 1444 1446 1449
1539 1538 1536 1535 1532 1530 1528 1525 1523 1520 1517 1513 1509 1506 1503 1500 1497 1494 1492 1489 1486 1483 1480 1476 1472 1468 1464 1461 1457 1453 1449 1444 1440 1436 1433 1431 1429 1429 1429 1431 1433 1436 1439
1533 1532 1531 1529 1527 1525 1523 1521 1518 1516 1513 1509 1503 1497 1494 1492 1489 1487 1485 1483 1480 1477 1474 1470 1466 1461 1456 1452 1448 1444 1440 1435 1431 1426 1423 1420 1418 1418 1418 1420 1422 1425 1428
1527 1526 1525 1523 1521 1519 1518 1515 1513 1510 1508 1505 1500 1493 1487 1483 1480 1480 1478 1475 1473 1470 1467 1463 1459 1455 1450 1445 1439 1435 1431 1426 1422 1417 1413 1410 1408 1407 1408 1409 1412 1414 1417
1520 1519 1518 1517 1516 1514 1512 1510 1508 1505 1503 1501 1498 1495 1489 1480 1475 1469 1469 1467 1465 1462 1459 1456 1451 1447 1443 1438 1432 1426 1422 1418 1413 1408 1404 1401 1398 1397 1397 1399 1401 1404 1407
1513 1512 1512 1511 1509 1508 1506 1505 1503 1500 1497 1495 1493 1490 1488 1483 1477 1466 1461 1460 1458 1454 1451 1448 1444 1440 1435 1430 1425 1420 1415 1411 1405 1400 1395 1391 1388 1387 1387 1388 1390 1393 1396
1505 1505 1504 1503 1502 1501 1500 1498 1497 1494 1492 1489 1487 1484 1482 1479 1475 1469 1457 1451 1448 1446 1443 1440 1436 1431 1427 1423 1417 1412 1408 1403 1397 1391 1386 1382 1379 1377 1376 1377 1379 1382 1385
1497 1497 1497 1496 1495 1494 1493 1492 1490 1488 1486 1483 1481 1478 1476 1473 1469 1465 1456 1447 1440 1435 1434 1431 1428 1424 1420 1415 1410 1405 1400 1395 1390 1384 1379 1376 1372 1369 1367 1367 1369 1372 1375
1488 1489 1489 1488 1488 1487 1486 1485 1483 1481 1479 1477 1474 1472 1469 1466 1463 1459 1453 1443 1435 1427 1424 1421 1419 1415 1412 1407 1402 1398 1392 1388 1382 1377 1373 1369 1366 1363 1360 1359 1359 1361 1364
1481 1482 1481 1481 1480 1480 1479 1478 1476 1474 1472 1469 1467 1465 1462 1459 1456 1453 1448 1441 1430 1420 1415 1412 1410 1407 1404 1399 1394 1390 1385 1380 1375 1370 1366 1362 1359 1356 1354 1353 1351 1352 1355
1472 1473 1473 1473 1473 1472 1471 1470 1468 1467 1465 1462 1459 1457 1454 1451 1448 1445 1441 1436 1430 1417 1404 1403 1401 1398 1395 1391 1386 1382 1377 1372 1367 1362 1358 1354 1351 1350 1348 1346 1345 1346 1348
1462 1463 1464 1464 1465 1464 1463 1462 1461 1459 1457 1454 1452 1449 1446 1443 1440 1437 1433 1428 1423 1415 1401 1394 1392 1389 1386 1383 1379 1375 1369 1364 1359 1354 1349 1346 1344 1343 1342 1341 1340 1340 1342
1452 1454 1455 1456 1456 1456 1456 1454 1453 1451 1448 1446 1444 1441 1438 1436 1432 1428 1424 1419 1414 1408 1397 1387 1385 1381 1377 1373 1369 1366 1361 1355 1350 1345 1342 1338 1336 1335 1335 1334 1334 1335 1337
1442 1444 1446 1447 1448 1448 1448 1446 1445 1443 1440 1438 1435 1433 1430 1428 1424 1420 1416 1410 1405 1400 1393 1382 1376 1373 1369 1365 1361 1357 1352 1347 1342 1337 1333 1330 1328 1327 1327 1327 1328 1329 1331
1432 1434 1436 1437 1439 1440 1440 1439 1437 1435 1433 1430 1428 1425 1422 1420 1415 1412 1407 1402 1397 1391 1386 1377 1369 1365 1361 1357 1353 1348 1344 1339 1334 1329 1325 1321 1319 1318 1318 1319 1320 1323 1325
1421 1424 1426 1429 1430 1431 1431 1430 1429 1427 1425 1422 1420 1417 1415 1411 1407 1403 1398 1393 1389 1383 1378 1371 1364 1358 1354 1350 1346 1341 1335 1331 1326 1322 1317 1314 1311 1309 1309 1310 1313 1315 1318
1412 1415 1418 1420 1421 1422 1423 1422 1421 1419 1417 1414 1412 1410 1407 1404 1400 1397 1392 1387 1382 1376 1371 1364 1358 1352 1348 1344 1340 1335 1329 1323 1318 1315 1311 1307 1305 1302 1301 1302 1304 1307 1311
1402 1405 1408 1410 1412 1413 1415 1414 1413 1411 1409 1406 1404 1402 1399 1396 1393 1388 1385 1380 1376 1371 1365 1359 1352 1347 1341 1337 1333 1328 1323 1318 1312 1309 1306 1301 1299 1296 1295 1296 1298 1301 1304
1392 1395 1398 1401 1403 1405 1406 1406 1405 1403 1401 1399 1397 1394 1391 1388 1385 1380 1375 1371 1368 1364 1360 1354 1346 1340 1334 1330 1325 1320 1316 1311 1306 1303 1301 1293 1292 1290 1289 1289 1291 1294 1298
1381 1384 1388 1391 1394 1396 1398 1398 1397 1396 1394 1392 1390 1387 1384 1380 1377 1373 1368 1363 1359 1356 1351 1345 1339 1333 1328 1322 1318 1313 1308 1304 1299 1297 1295 1289 1285 1284 1283 1283 1285 1288 1292
1371 1375 1379 1383 1385 1388 1390 1390 1390 1388 1386 1384 1383 1380 1377 1373 1370 1367 1363 1358 1352 1348 1343 1338 1333 1327 1322 1316 1312 1307 1302 1299 1293 1290 1289 1286 1281 1279 1277 1277 1280 1283 1286
1362 1366 1370 1374 1377 1380 1382 1382 1382 1381 1379 1377 1375 1373 1371 1367 1364 1362 1358 1352 1346 1340 1335 1329 1324 1319 1313 1308 1304 1300 1296 1292 1289 1285 1283 1282 1279 1278 1275 1273 1275 1277 1281